Time,TemperatureF,DewpointF,PressureIn,WindDirection,WindDirectionDegrees,WindSpeedMPH,WindSpeedGustMPH,Humidity,HourlyPrecipIn,Conditions,Clouds,dailyrainin,SoftwareType,DateUTC
2013-02-27 00:02:00,32.9,30.0,29.75,East,82,12.0,-999.0,89,-99.99,,,0.00,weatherlink.com 1.10,2013-02-27 05:02:00,
2013-02-27 00:17:00,32.8,30.0,29.75,East,101,8.0,-999.0,89,-99.99,,,0.01,weatherlink.com 1.10,2013-02-27 05:17:00,
2013-02-27 00:32:00,32.8,30.0,29.74,SE,132,16.0,-999.0,89,-99.99,,,0.01,weatherlink.com 1.10,2013-02-27 05:32:00,
2013-02-27 00:47:00,32.8,30.0,29.74,East,96,11.0,-999.0,89,-99.99,,,0.01,weatherlink.com 1.10,2013-02-27 05:47:00,
2013-02-27 01:02:00,32.8,30.0,29.73,East,99,8.0,-999.0,89,-99.99,,,0.02,weatherlink.com 1.10,2013-02-27 06:02:00,
2013-02-27 01:17:00,32.9,30.0,29.73,East,83,10.0,-999.0,89,-99.99,,,0.02,weatherlink.com 1.10,2013-02-27 06:17:00,
2013-02-27 01:32:00,33.0,30.0,29.72,East,99,14.0,-999.0,89,-99.99,,,0.02,weatherlink.com 1.10,2013-02-27 06:32:00,
2013-02-27 01:47:00,33.1,30.0,29.71,East,90,12.0,-999.0,89,-99.99,,,0.03,weatherlink.com 1.10,2013-02-27 06:47:00,
2013-02-27 02:02:00,33.2,30.0,29.70,East,100,11.0,-999.0,89,-99.99,,,0.03,weatherlink.com 1.10,2013-02-27 07:02:00,
2013-02-27 02:17:00,33.2,30.0,29.70,ENE,76,5.0,-999.0,89,-99.99,,,0.04,weatherlink.com 1.10,2013-02-27 07:17:00,
2013-02-27 02:32:00,33.2,30.0,29.68,East,94,14.0,-999.0,89,-99.99,,,0.04,weatherlink.com 1.10,2013-02-27 07:32:00,
2013-02-27 02:47:00,33.3,30.0,29.68,East,98,20.0,-999.0,89,-99.99,,,0.04,weatherlink.com 1.10,2013-02-27 07:47:00,
2013-02-27 03:02:00,33.3,30.0,29.67,East,89,4.0,-999.0,89,-99.99,,,0.04,weatherlink.com 1.10,2013-02-27 08:02:00,
2013-02-27 03:17:00,33.3,30.0,29.65,ESE,113,11.0,-999.0,89,-99.99,,,0.05,weatherlink.com 1.10,2013-02-27 08:17:00,
2013-02-27 03:32:00,33.3,30.0,29.65,ENE,64,11.0,-999.0,89,-99.99,,,0.05,weatherlink.com 1.10,2013-02-27 08:32:00,
2013-02-27 03:47:00,33.3,30.0,29.65,East,92,7.0,-999.0,89,-99.99,,,0.05,weatherlink.com 1.10,2013-02-27 08:47:00,
2013-02-27 04:02:00,33.3,30.0,29.64,ENE,68,6.0,-999.0,89,-99.99,,,0.05,weatherlink.com 1.10,2013-02-27 09:02:00,
2013-02-27 04:17:00,33.2,30.0,29.64,ESE,120,5.0,-999.0,89,-99.99,,,0.05,weatherlink.com 1.10,2013-02-27 09:17:00,
2013-02-27 04:32:00,33.2,30.0,29.64,ENE,78,7.0,-999.0,88,-99.99,,,0.05,weatherlink.com 1.10,2013-02-27 09:32:00,
2013-02-27 04:47:00,33.0,30.0,29.64,ESE,110,11.0,-999.0,88,-99.99,,,0.05,weatherlink.com 1.10,2013-02-27 09:47:00,
2013-02-27 05:02:00,33.0,30.0,29.64,ENE,58,5.0,-999.0,89,-99.99,,,0.06,weatherlink.com 1.10,2013-02-27 10:02:00,
2013-02-27 05:17:00,33.0,30.0,29.63,NE,42,7.0,-999.0,89,-99.99,,,0.06,weatherlink.com 1.10,2013-02-27 10:17:00,
2013-02-27 05:32:00,33.0,30.0,29.63,East,97,2.0,-999.0,89,-99.99,,,0.06,weatherlink.com 1.10,2013-02-27 10:32:00,
2013-02-27 05:47:00,33.0,30.0,29.63,ENE,66,4.0,-999.0,89,-99.99,,,0.06,weatherlink.com 1.10,2013-02-27 10:47:00,
2013-02-27 06:02:00,33.0,30.0,29.63,East,81,2.0,-999.0,89,-99.99,,,0.07,weatherlink.com 1.10,2013-02-27 11:02:00,
2013-02-27 06:17:00,33.0,30.0,29.63,East,101,0.0,-999.0,89,-99.99,,,0.07,weatherlink.com 1.10,2013-02-27 11:17:00,
2013-02-27 06:32:00,32.9,30.0,29.62,East,94,2.0,-999.0,89,-99.99,,,0.08,weatherlink.com 1.10,2013-02-27 11:32:00,
2013-02-27 06:47:00,32.9,30.0,29.62,East,83,3.0,-999.0,89,-99.99,,,0.09,weatherlink.com 1.10,2013-02-27 11:47:00,
2013-02-27 07:02:00,32.8,30.0,29.62,East,92,7.0,-999.0,89,-99.99,,,0.09,weatherlink.com 1.10,2013-02-27 12:02:00,
2013-02-27 07:18:00,32.8,30.0,29.61,East,100,4.0,-999.0,89,-99.99,,,0.09,weatherlink.com 1.10,2013-02-27 12:18:00,
2013-02-27 07:33:00,32.8,30.0,29.61,ESE,103,6.0,-999.0,89,-99.99,,,0.10,weatherlink.com 1.10,2013-02-27 12:33:00,
2013-02-27 07:48:00,32.7,30.0,29.62,East,90,4.0,-999.0,89,-99.99,,,0.10,weatherlink.com 1.10,2013-02-27 12:48:00,
2013-02-27 08:03:00,32.6,30.0,29.62,East,94,2.0,-999.0,89,-99.99,,,0.10,weatherlink.com 1.10,2013-02-27 13:03:00,
2013-02-27 08:18:00,32.6,30.0,29.62,East,83,7.0,-999.0,89,-99.99,,,0.10,weatherlink.com 1.10,2013-02-27 13:18:00,
2013-02-27 08:33:00,32.5,30.0,29.62,East,92,5.0,-999.0,89,-99.99,,,0.10,weatherlink.com 1.10,2013-02-27 13:33:00,
2013-02-27 08:48:00,32.5,30.0,29.62,East,82,1.0,-999.0,89,-99.99,,,0.10,weatherlink.com 1.10,2013-02-27 13:48:00,
2013-02-27 09:03:00,32.5,30.0,29.62,East,97,4.0,-999.0,89,-99.99,,,0.11,weatherlink.com 1.10,2013-02-27 14:03:00,
2013-02-27 09:18:00,32.4,30.0,29.62,East,99,1.0,-999.0,89,-99.99,,,0.11,weatherlink.com 1.10,2013-02-27 14:18:00,
2013-02-27 09:33:00,32.5,30.0,29.61,East,96,0.0,-999.0,89,-99.99,,,0.12,weatherlink.com 1.10,2013-02-27 14:33:00,
2013-02-27 09:48:00,32.5,30.0,29.61,East,90,8.0,-999.0,89,-99.99,,,0.12,weatherlink.com 1.10,2013-02-27 14:48:00,
2013-02-27 10:03:00,32.6,30.0,29.62,ENE,69,0.0,-999.0,89,-99.99,,,0.13,weatherlink.com 1.10,2013-02-27 15:03:00,
2013-02-27 10:18:00,32.6,30.0,29.62,East,85,0.0,-999.0,89,-99.99,,,0.14,weatherlink.com 1.10,2013-02-27 15:18:00,
2013-02-27 10:33:00,32.6,30.0,29.61,East,97,5.0,-999.0,89,-99.99,,,0.15,weatherlink.com 1.10,2013-02-27 15:33:00,
2013-02-27 10:48:00,32.7,30.0,29.61,East,88,2.0,-999.0,89,-99.99,,,0.16,weatherlink.com 1.10,2013-02-27 15:48:00,
2013-02-27 11:03:00,32.9,30.0,29.61,East,99,7.0,-999.0,89,-99.99,,,0.18,weatherlink.com 1.10,2013-02-27 16:03:00,
2013-02-27 11:18:00,33.2,30.0,29.60,East,98,2.0,-999.0,89,-99.99,,,0.20,weatherlink.com 1.10,2013-02-27 16:18:00,
2013-02-27 11:33:00,33.1,30.0,29.61,ESE,109,4.0,-999.0,89,-99.99,,,0.21,weatherlink.com 1.10,2013-02-27 16:33:00,
2013-02-27 11:48:00,33.1,30.0,29.60,ESE,108,6.0,-999.0,89,-99.99,,,0.22,weatherlink.com 1.10,2013-02-27 16:48:00,
2013-02-27 12:03:00,33.0,30.0,29.60,ESE,110,7.0,-999.0,89,-99.99,,,0.24,weatherlink.com 1.10,2013-02-27 17:03:00,
2013-02-27 12:18:00,33.1,30.0,29.59,East,96,0.0,-999.0,89,-99.99,,,0.25,weatherlink.com 1.10,2013-02-27 17:18:00,
2013-02-27 12:33:00,33.2,30.0,29.59,East,99,0.0,-999.0,89,-99.99,,,0.26,weatherlink.com 1.10,2013-02-27 17:33:00,
2013-02-27 12:48:00,33.3,30.0,29.59,East,92,2.0,-999.0,89,-99.99,,,0.27,weatherlink.com 1.10,2013-02-27 17:48:00,
2013-02-27 13:03:00,33.3,30.0,29.59,NE,52,0.0,-999.0,89,-99.99,,,0.28,weatherlink.com 1.10,2013-02-27 18:03:00,
2013-02-27 13:18:00,33.3,30.0,29.58,ENE,75,0.0,-999.0,89,-99.99,,,0.29,weatherlink.com 1.10,2013-02-27 18:18:00,
2013-02-27 13:33:00,33.2,30.0,29.57,East,94,2.0,-999.0,89,-99.99,,,0.30,weatherlink.com 1.10,2013-02-27 18:33:00,
2013-02-27 13:48:00,33.1,30.0,29.57,East,101,0.0,-999.0,89,-99.99,,,0.30,weatherlink.com 1.10,2013-02-27 18:48:00,
2013-02-27 14:03:00,33.2,30.0,29.57,ESE,107,0.0,-999.0,89,-99.99,,,0.31,weatherlink.com 1.10,2013-02-27 19:03:00,
2013-02-27 14:18:00,33.3,30.0,29.57,East,101,0.0,-999.0,89,-99.99,,,0.32,weatherlink.com 1.10,2013-02-27 19:18:00,
2013-02-27 14:33:00,33.5,31.0,29.57,East,100,0.0,-999.0,89,-99.99,,,0.33,weatherlink.com 1.10,2013-02-27 19:33:00,
2013-02-27 14:48:00,33.6,31.0,29.57,East,100,0.0,-999.0,89,-99.99,,,0.34,weatherlink.com 1.10,2013-02-27 19:48:00,
2013-02-27 15:03:00,33.7,31.0,29.57,East,100,0.0,-999.0,89,-99.99,,,0.36,weatherlink.com 1.10,2013-02-27 20:03:00,
2013-02-27 15:18:00,33.9,31.0,29.57,East,100,0.0,-999.0,89,-99.99,,,0.36,weatherlink.com 1.10,2013-02-27 20:18:00,
2013-02-27 15:33:00,33.7,31.0,29.57,East,99,0.0,-999.0,89,-99.99,,,0.37,weatherlink.com 1.10,2013-02-27 20:33:00,
2013-02-27 15:48:00,33.6,31.0,29.58,East,99,0.0,-999.0,89,-99.99,,,0.38,weatherlink.com 1.10,2013-02-27 20:48:00,
2013-02-27 16:03:00,33.6,31.0,29.58,East,100,0.0,-999.0,89,-99.99,,,0.38,weatherlink.com 1.10,2013-02-27 21:03:00,
2013-02-27 16:18:00,33.4,31.0,29.58,East,100,0.0,-999.0,89,-99.99,,,0.39,weatherlink.com 1.10,2013-02-27 21:18:00,
2013-02-27 16:33:00,33.2,30.0,29.58,East,100,0.0,-999.0,89,-99.99,,,0.39,weatherlink.com 1.10,2013-02-27 21:33:00,
2013-02-27 16:48:00,33.1,30.0,29.58,East,100,0.0,-999.0,89,-99.99,,,0.39,weatherlink.com 1.10,2013-02-27 21:48:00,
2013-02-27 17:03:00,33.1,30.0,29.58,East,100,0.0,-999.0,89,-99.99,,,0.40,weatherlink.com 1.10,2013-02-27 22:03:00,
2013-02-27 17:18:00,32.9,30.0,29.58,East,99,0.0,-999.0,89,-99.99,,,0.40,weatherlink.com 1.10,2013-02-27 22:18:00,
2013-02-27 17:33:00,32.8,30.0,29.59,East,99,0.0,-999.0,89,-99.99,,,0.40,weatherlink.com 1.10,2013-02-27 22:33:00,
2013-02-27 17:48:00,32.7,30.0,29.59,East,100,0.0,-999.0,89,-99.99,,,0.40,weatherlink.com 1.10,2013-02-27 22:48:00,
2013-02-27 18:03:00,32.8,30.0,29.59,SE,134,1.0,-999.0,89,-99.99,,,0.40,weatherlink.com 1.10,2013-02-27 23:03:00,
2013-02-27 18:18:00,32.9,30.0,29.59,SW,217,4.0,-999.0,89,-99.99,,,0.40,weatherlink.com 1.10,2013-02-27 23:18:00,
2013-02-27 18:33:00,33.0,30.0,29.59,WSW,243,3.0,-999.0,89,-99.99,,,0.40,weatherlink.com 1.10,2013-02-27 23:33:00,
2013-02-27 18:48:00,33.0,30.0,29.59,WSW,252,3.0,-999.0,89,-99.99,,,0.40,weatherlink.com 1.10,2013-02-27 23:48:00,
2013-02-27 19:03:00,33.0,30.0,29.59,WSW,249,4.0,-999.0,89,-99.99,,,0.40,weatherlink.com 1.10,2013-02-28 00:03:00,
2013-02-27 19:18:00,33.1,31.0,29.59,WSW,238,4.0,-999.0,90,-99.99,,,0.40,weatherlink.com 1.10,2013-02-28 00:18:00,
2013-02-27 19:33:00,33.1,31.0,29.59,WSW,241,4.0,-999.0,90,-99.99,,,0.40,weatherlink.com 1.10,2013-02-28 00:33:00,
2013-02-27 19:48:00,33.1,31.0,29.59,SW,233,8.0,-999.0,90,-99.99,,,0.41,weatherlink.com 1.10,2013-02-28 00:48:00,
2013-02-27 20:03:00,33.1,30.0,29.59,WSW,258,4.0,-999.0,89,-99.99,,,0.41,weatherlink.com 1.10,2013-02-28 01:03:00,
2013-02-27 20:18:00,33.0,30.0,29.59,WSW,238,4.0,-999.0,89,-99.99,,,0.41,weatherlink.com 1.10,2013-02-28 01:18:00,
2013-02-27 20:33:00,32.9,30.0,29.59,SW,236,3.0,-999.0,89,-99.99,,,0.42,weatherlink.com 1.10,2013-02-28 01:33:00,
2013-02-27 20:48:00,32.9,30.0,29.59,SW,223,7.0,-999.0,89,-99.99,,,0.42,weatherlink.com 1.10,2013-02-28 01:48:00,
2013-02-27 21:03:00,33.1,30.0,29.59,WSW,245,5.0,-999.0,89,-99.99,,,0.42,weatherlink.com 1.10,2013-02-28 02:03:00,
2013-02-27 21:18:00,33.0,30.0,29.58,SW,229,3.0,-999.0,89,-99.99,,,0.42,weatherlink.com 1.10,2013-02-28 02:18:00,
2013-02-27 21:33:00,33.0,30.0,29.59,SW,222,6.0,-999.0,89,-99.99,,,0.42,weatherlink.com 1.10,2013-02-28 02:33:00,
2013-02-27 22:03:00,33.2,31.0,29.59,SW,234,7.0,-999.0,90,-99.99,,,0.43,weatherlink.com 1.10,2013-02-28 03:03:00,
2013-02-27 22:18:00,33.2,31.0,29.59,SW,218,6.0,-999.0,90,-99.99,,,0.44,weatherlink.com 1.10,2013-02-28 03:18:00,
2013-02-27 22:33:00,33.1,31.0,29.58,SW,232,6.0,-999.0,90,-99.99,,,0.44,weatherlink.com 1.10,2013-02-28 03:33:00,
2013-02-27 22:48:00,33.0,30.0,29.58,SW,226,6.0,-999.0,89,-99.99,,,0.44,weatherlink.com 1.10,2013-02-28 03:48:00,
2013-02-27 23:03:00,32.9,30.0,29.58,WSW,238,9.0,-999.0,89,-99.99,,,0.44,weatherlink.com 1.10,2013-02-28 04:03:00,
2013-02-27 23:33:00,33.0,30.0,29.58,SW,228,6.0,-999.0,89,-99.99,,,0.45,weatherlink.com 1.10,2013-02-28 04:33:00,
2013-02-27 23:48:00,32.9,30.0,29.57,SW,227,5.0,-999.0,89,-99.99,,,0.45,weatherlink.com 1.10,2013-02-28 04:48:00,